CZ-4B DEB

Satellite information

Favourite Embed

Satellite Type and Status

DEBRISIN ORBIT

Key statistics

Satellite CZ-4B DEB at a glance.

Uptime

5388

Days in orbit

Revolutions

≈ 15.0

Per day

Orbit

SSO

Sun Synchronous Orbit

Inclination

97.8

Latest

Satellite identification and parameters

Extended collection of information and parameters for CZ-4B DEB.

Object identification

Identified? True

Debris? True

Object name: CZ-4B DEB

International designator: 2010-051E

Object number (NORAD): 38184

Object ID (CCSDS): 38184

Country: PEOPLES REPUBLIC OF CHINA (PRC)

Current information (Y/N): Y

RCS size: SMALL

Orbital parameters

Period: 95.762 minutes

Inclination: 97.7573 deg

SMA: 6933.563 km

Apoapsis: 613.073 km

Periapsis: 497.782 km

RAAN: 349.8805 deg

Eccentricy: 0.008314

Argument of periapsis: 67.2754 deg

Mean anomaly: 293.7232 deg

Mean motion: 15.03723884 rev/day

Mean motion (dot): 0.00018419 rev/day2

B* drag term: 0.0012466 1/REarth

Two-line elements (TLE)

Creation date: July 5, 2025, 5:45 p.m.

Reference frame: TEME

Reference center: EARTH

Epoch: July 5, 2025, 10:09 a.m. UTC

TLE line 0: 0 CZ-4B DEB

TLE line 1: 1 38184U 10051E 25186.42307684 .00018419 00000-0 12466-2 0 9991

TLE line 2: 2 38184 97.7573 349.8805 0083140 67.2754 293.7232 15.03723884783410

Live tracking on map

Real-time ground track for satellite CZ-4B DEB.

In-orbit conjunctions

A list of the most updated potential collisions computed for object CZ-4B DEB.

Target Orbit TCA Probability of collision Miss distance Type
ELECTRON KICK STAGE R/B SSO 2025-01-28 18:39:04 0.0002056074 205.0 (m) ROCKET BODY
PSLV DEB SSO 2024-11-12 03:33:22 0.0008891335 384.0 (m) DEBRIS
IRIDIUM 33 DEB LEO 2024-08-26 15:22:53 0.0006233529 57.0 (m) DEBRIS

Associated space launch

CZ-4B DEB was lifted into orbit during the mission ‘Long March 4B | Shijian 6G & Shijian 6H’, on board a Long March 4B space rocket.

The launch took place on Oct. 6, 2010, 12:49 a.m. from Launch Complex 7.

For more information about the launch, click the button.

Launch to space Long March 4B | Shijian 6G & Shijian 6H
Long March 4B | Shijian 6G & Shijian 6H

Agency: N/A

Status: Launch Successful

Launch date: Oct. 6, 2010, 12:49 a.m. UTC

Rocket: Long March 4B

Launch pad: Launch Complex 7

Location: Taiyuan Satellite Launch Center, People's Republic of China

...

Latest news about this satellite

There are no fresh news available about this satellite. Check back as we update our databases every day.


Newsletter sign-up

Weekly statistics, charts and insights to help you stay on top of the space industry.